K5HAS Weather Reports


Display with metric or nautical units.
time (UTC)temp
F
wind
direction
speed
MPH
gust
MPH
rain 1hr
in
rain 24hr
in
rain mn
in
humidity
%
barometer
mb
20260508075028 69 20 5.0 8.0 0.00 0.00 0.00 84 1010.9
20260508074528 69 22 5.0 9.0 0.00 0.00 0.00 84 1010.9
20260508074028 69 328 5.0 9.0 0.00 0.00 0.00 84 1011.3
20260508073527 69 357 5.0 8.0 0.00 0.00 0.00 84 1011.3
20260508073025 69 342 5.0 8.0 0.00 0.00 0.00 84 1011.3
20260508072527 69 354 4.0 8.0 0.00 0.00 0.00 84 1011.6
20260508072250 69 359 5.0 8.0 0.00 0.00 0.00 84 1011.6
20260508071523 69 5 5.0 8.0 0.00 0.00 0.00 84 1011.6
20260508071019 69 11 6.0 11.0 0.00 0.00 0.00 84 1011.8
20260508070519 69 351 7.0 11.0 0.00 0.00 0.00 84 1011.8
20260508070012 69 350 7.0 11.0 0.00 0.00 0.00 84 1011.8
20260508065509 69 357 7.0 11.0 0.00 0.00 0.00 84 1012.2
20260508065227 69 333 8.0 11.0 0.00 0.00 0.00 84 1012.2
20260508064509 69 338 8.0 11.0 0.00 0.00 0.00 84 1012.2
20260508064009 69 342 6.0 10.0 0.00 0.00 0.00 84 1012.2
20260508063510 69 332 6.0 10.0 0.00 0.00 0.00 84 1012.2
20260508063010 69 328 7.0 11.0 0.00 0.00 0.00 84 1012.2
20260508062509 69 329 7.0 11.0 0.00 0.00 0.00 84 1011.9
20260508062234 70 334 7.0 11.0 0.00 0.00 0.00 84 1011.9
20260508061510 70 335 7.0 11.0 0.00 0.00 0.00 84 1011.9
20260508061009 70 342 7.0 10.0 0.00 0.00 0.00 84 1011.7
20260508060510 70 341 7.0 12.0 0.00 0.00 0.00 84 1011.7
20260508060008 70 338 8.0 11.0 0.00 0.00 0.00 84 1011.7
20260508055504 70 357 9.0 12.0 0.00 0.00 0.00 84 1011.6
20260508054952 71 334 9.0 12.0 0.00 0.00 0.00 84 1011.6
20260508054443 71 332 9.0 12.0 0.00 0.00 0.00 85 1011.6
20260508053936 71 329 9.0 12.0 0.00 0.00 0.00 84 1011.6
20260508053430 71 344 8.0 12.0 0.00 0.00 0.00 85 1011.6
20260508052925 72 323 7.0 12.0 0.00 0.00 0.00 85 1011.4
20260508052416 72 344 7.0 10.0 0.00 0.00 0.00 85 1011.4
20260508051906 72 2 7.0 10.0 0.00 0.00 0.00 85 1011.4
20260508051401 72 351 6.0 9.0 0.00 0.00 0.00 85 1010.8
20260508050858 72 349 4.0 7.0 0.00 0.00 0.00 84 1010.8
20260508050630 72 90 3.0 6.0 0.00 0.00 0.00 84 1010.8
20260508045858 72 49 2.0 5.0 0.00 0.00 0.00 84 1011.1
20260508045621 72 74 2.0 5.0 0.00 0.00 0.00 84 1011.1
20260508044854 72 54 2.0 5.0 0.00 0.00 0.00 84 1011.1
20260508044352 72 109 2.0 4.0 0.00 0.00 0.00 84 1011.3
20260508043853 72 112 2.0 4.0 0.00 0.00 0.00 84 1011.3
20260508043350 72 128 2.0 4.0 0.00 0.00 0.00 84 1011.3
20260508042847 72 130 2.0 7.0 0.00 0.00 0.00 84 1010.9
20260508042346 72 120 2.0 7.0 0.00 0.00 0.00 84 1010.9
20260508041848 72 120 4.0 7.0 0.00 0.00 0.00 84 1010.9
20260508041341 72 117 5.0 7.0 0.00 0.00 0.00 84 1011.4
20260508040831 72 103 5.0 7.0 0.00 0.00 0.00 84 1011.4
20260508040325 72 99 4.0 15.0 0.00 0.00 0.00 84 1011.4
20260508035816 72 133 6.0 15.0 0.00 0.00 0.00 84 1010.4
20260508034756 73 111 10.0 15.0 0.00 0.00 0.00 84 1010.4
20260508034245 73 116 9.0 12.0 0.00 0.00 0.00 84 1011.4
20260508033736 73 128 8.0 12.0 0.00 0.00 0.00 84 1011.4
20260508033229 73 130 7.0 10.0 0.00 0.00 0.00 84 1011.4
20260508032720 73 113 6.0 8.0 0.00 0.00 0.00 83 1011.9
20260508032206 73 106 4.0 7.0 0.00 0.00 0.00 83 1011.9
20260508031655 73 90 3.0 5.0 0.00 0.00 0.00 83 1011.9
20260508031148 73 53 3.0 4.0 0.00 0.00 0.00 83 1012.4
20260508030853 73 43 3.0 8.0 0.00 0.00 0.00 83 1012.4
20260508030130 73 11 3.0 8.0 0.00 0.00 0.00 83 1012.4
20260508025617 73 35 4.0 8.0 0.00 0.00 0.00 83 1011.9
20260508025111 73 61 4.0 8.0 0.00 0.00 0.00 83 1011.9
20260508024047 73 36 3.0 6.0 0.00 0.00 0.00 84 1012.5
20260508023546 73 6 3.0 5.0 0.00 0.00 0.00 84 1012.5
20260508023301 73 10 3.0 6.0 0.00 0.00 0.00 84 1012.5
20260508022537 73 14 3.0 6.0 0.00 0.00 0.00 84 1011.9
20260508022034 73 1 3.0 6.0 0.00 0.00 0.00 84 1011.9
20260508021536 73 19 3.0 5.0 0.00 0.00 0.00 84 1011.9
20260508021034 73 39 3.0 5.0 0.00 0.00 0.00 84 1011.8
20260508020800 73 37 3.0 4.0 0.00 0.00 0.00 84 1011.8
20260508020306 73 39 3.0 5.0 0.00 0.00 0.00 83 1011.8
20260508015535 73 49 3.0 5.0 0.00 0.00 0.00 83 1011.4
20260508015035 73 56 3.0 5.0 0.00 0.00 0.00 83 1011.4
20260508014534 73 59 4.0 6.0 0.00 0.00 0.00 83 1011.4
20260508014017 73 57 4.0 7.0 0.00 0.00 0.00 83 1011.5
20260508013506 73 46 4.0 7.0 0.00 0.00 0.00 83 1011.5
20260508013006 73 29 4.0 9.0 0.00 0.00 0.00 83 1011.5
20260508012506 73 39 6.0 9.0 0.00 0.00 0.00 83 1011.4
20260508012006 73 25 6.0 9.0 0.00 0.00 0.00 83 1011.4
20260508011504 73 24 6.0 9.0 0.00 0.00 0.00 83 1011.4
20260508011002 73 15 5.0 9.0 0.00 0.00 0.00 83 1011.4
20260508010501 74 42 5.0 12.0 0.00 0.00 0.00 83 1011.4
20260508005959 74 13 6.0 12.0 0.00 0.00 0.00 83 1011.4
20260508005458 74 27 7.0 12.0 0.00 0.00 0.00 83 1011.2
20260508005003 74 9 7.0 12.0 0.00 0.00 0.00 83 1011.2
20260508004449 74 15 7.0 11.0 0.00 0.00 0.00 83 1011.3
20260508003949 74 14 6.0 11.0 0.00 0.00 0.00 83 1011.3
20260508003712 74 14 5.0 9.0 0.00 0.00 0.00 83 1011.3
20260508002954 74 16 5.0 9.0 0.00 0.00 0.00 83 1011.7
20260508002448 74 16 4.0 6.0 0.00 0.00 0.00 83 1011.7
20260508001947 74 348 4.0 6.0 0.00 0.00 0.00 83 1011.7
20260508001711 74 352 3.0 5.0 0.00 0.00 0.00 83 1011.7
20260508000948 74 6 3.0 4.0 0.00 0.00 0.00 83 1011.4
20260508000450 74 356 3.0 4.0 0.00 0.00 0.00 83 1011.4
20260508000212 74 11 3.0 5.0 0.00 0.00 0.00 83 1011.4
20260507235442 74 30 3.0 5.0 0.00 0.00 0.00 82 1011.4
20260507234937 74 38 3.0 5.0 0.00 0.00 0.00 82 1011.4
20260507234437 74 45 3.0 6.0 0.00 0.00 0.00 82 1011.3
20260507233937 74 48 3.0 6.0 0.00 0.00 0.00 82 1011.3
20260507233436 74 49 3.0 6.0 0.00 0.00 0.00 82 1011.3
20260507233202 74 59 2.0 6.0 0.00 0.00 0.00 82 1011.5
20260507232702 74 52 2.0 5.0 0.00 0.00 0.00 82 1011.5
20260507231933 74 59 2.0 6.0 0.00 0.00 0.00 82 1011.5
20260507231433 74 44 3.0 6.0 0.00 0.00 0.00 82 1011.5
20260507230938 74 45 4.0 9.0 0.00 0.00 0.00 82 1011.5
20260507230434 74 30 5.0 9.0 0.00 0.00 0.00 82 1011.5
20260507225934 74 23 6.0 9.0 0.00 0.00 0.00 82 1011.6
20260507225433 74 34 5.0 9.0 0.00 0.00 0.00 82 1011.6
20260507225153 74 24 4.0 8.0 0.00 0.00 0.00 82 1011.6
20260507224653 74 47 4.0 8.0 0.00 0.00 0.00 82 1011.3
20260507224146 74 47 4.0 9.0 0.00 0.00 0.00 82 1011.3
20260507223408 74 49 5.0 9.0 0.00 0.00 0.00 82 1011.3
20260507222901 74 39 6.0 11.0 0.00 0.00 0.00 82 1011.3
20260507222352 74 62 6.0 10.0 0.00 0.00 0.00 82 1011.3
20260507221844 73 49 6.0 9.0 0.00 0.00 0.00 82 1011.3
20260507221340 73 40 6.0 11.0 0.00 0.00 0.00 82 1011.4
20260507220840 73 33 6.0 11.0 0.00 0.00 0.00 82 1011.4
20260507220603 73 28 5.0 11.0 0.00 0.00 0.00 82 1011.4
20260507215841 73 24 6.0 11.0 0.00 0.00 0.00 82 1011.3
20260507215339 73 16 8.0 13.0 0.00 0.00 0.00 82 1011.3
20260507214838 73 26 9.0 13.0 0.00 0.00 0.00 82 1011.3
20260507214339 73 21 8.0 13.0 0.00 0.00 0.00 82 1011.4
20260507213840 73 4 7.0 14.0 0.00 0.00 0.00 82 1011.4
20260507213327 73 28 7.0 14.0 0.00 0.00 0.00 83 1011.4
20260507212827 73 22 8.0 14.0 0.00 0.00 0.00 83 1011.7
20260507212332 73 38 9.0 14.0 0.00 0.00 0.00 83 1011.7
20260507211833 73 335 8.0 13.0 0.00 0.00 0.00 83 1011.7
20260507211327 73 55 7.0 13.0 0.00 0.00 0.00 83 1011.9
20260507211100 72 40 6.0 9.0 0.00 0.00 0.00 83 1011.9
20260507210327 72 40 7.0 11.0 0.00 0.00 0.00 83 1011.9
20260507210055 72 18 7.0 12.0 0.00 0.00 0.00 83 1012.0
20260507205320 71 24 7.0 12.0 0.00 0.00 0.00 83 1012.0
20260507204812 71 39 7.0 13.0 0.00 0.00 0.00 83 1012.0
20260507204306 71 26 7.0 13.0 0.00 0.00 0.00 83 1012.2
20260507204024 71 58 7.0 13.0 0.00 0.00 0.00 83 1012.2
20260507203246 71 32 8.0 13.0 0.00 0.00 0.00 83 1012.2
20260507202743 71 47 8.0 14.0 0.00 0.00 0.00 83 1012.4
20260507202243 70 23 8.0 14.0 0.00 0.00 0.00 83 1012.4
20260507202015 70 36 8.0 13.0 0.00 0.00 0.00 83 1012.4
20260507201246 70 43 7.0 12.0 0.00 0.00 0.00 83 1012.7
20260507200741 70 0 7.0 14.0 0.00 0.00 0.00 83 1012.7
20260507200241 69 32 9.0 14.0 0.00 0.00 0.00 83 1012.7
20260507195740 69 39 9.0 14.0 0.00 0.00 0.00 83 1012.8
20260507195240 69 15 8.0 14.0 0.00 0.00 0.00 83 1012.8
20260507194740 69 30 8.0 14.0 0.00 0.00 0.00 83 1012.8
20260507194240 69 57 8.0 13.0 0.00 0.00 0.00 83 1012.9
20260507193740 69 19 9.0 17.0 0.00 0.00 0.00 83 1012.9
20260507193238 69 26 11.0 17.0 0.00 0.00 0.00 83 1012.9
20260507192736 69 31 11.0 17.0 0.00 0.00 0.00 83 1013.4
20260507192229 69 30 10.0 16.0 0.00 0.00 0.00 83 1013.4
20260507191719 69 9 10.0 16.0 0.00 0.00 0.00 83 1013.4
20260507191210 68 5 10.0 15.0 0.00 0.00 0.00 83 1013.5
20260507190700 68 22 11.0 16.0 0.00 0.00 0.00 83 1013.5
20260507190150 68 17 11.0 16.0 0.00 0.00 0.00 83 1013.5
20260507185644 68 357 9.0 16.0 0.00 0.00 0.00 83 1013.7
20260507185133 68 10 8.0 15.0 0.00 0.00 0.00 84 1013.7
20260507184628 68 33 10.0 17.0 0.00 0.00 0.00 84 1013.7
20260507184121 68 32 11.0 17.0 0.00 0.00 0.00 84 1013.6
20260507183611 68 353 11.0 18.0 0.00 0.00 0.00 84 1013.6
20260507183102 68 339 12.0 18.0 0.00 0.00 0.00 84 1013.6
20260507182555 68 357 10.0 17.0 0.00 0.00 0.00 84 1014.0
20260507182307 68 341 9.0 15.0 0.00 0.00 0.00 84 1014.0
20260507181802 68 352 9.0 15.0 0.00 0.00 0.00 84 1014.0
20260507181030 68 339 9.0 15.0 0.00 0.00 0.00 84 1014.0
20260507180523 68 354 10.0 16.0 0.00 0.00 0.00 84 1014.0
20260507180014 68 359 11.0 16.0 0.00 0.00 0.00 84 1014.0
20260507175519 68 90 12.0 19.0 0.00 0.00 0.00 84 1014.0
20260507175235 68 10 12.0 19.0 0.00 0.00 0.00 84 1014.0
20260507174011 68 357 13.0 20.0 0.00 0.00 0.00 85 1014.0
20260507173516 68 90 12.0 20.0 0.00 0.00 0.00 85 1014.0
20260507173012 68 351 12.0 19.0 0.00 0.00 0.00 85 1014.0
20260507172521 67 340 13.0 21.0 0.00 0.00 0.00 85 1014.1
20260507172012 67 359 13.0 21.0 0.00 0.00 0.00 85 1014.1
20260507171512 66 1 12.0 13.0 0.00 0.00 0.00 85 1014.1
20260507165911 66 357 11.0 18.0 0.00 0.00 0.00 85 1014.5
20260507165359 66 0 11.0 18.0 0.00 0.00 0.00 86 1014.5
20260507165101 66 1 10.0 18.0 0.00 0.00 0.00 86 1014.5
20260507164331 66 22 10.0 16.0 0.00 0.00 0.00 85 1014.5
20260507163817 66 3 11.0 18.0 0.00 0.00 0.00 85 1014.5
20260507163319 66 20 11.0 18.0 0.00 0.00 0.00 85 1014.5
20260507162818 66 10 10.0 16.0 0.00 0.00 0.00 86 1014.5
20260507162318 66 11 10.0 16.0 0.00 0.00 0.00 86 1014.5
20260507162049 66 16 11.0 17.0 0.00 0.00 0.00 86 1014.5
20260507161318 66 11 12.0 17.0 0.00 0.00 0.00 86 1014.3
20260507160816 65 1 12.0 17.0 0.00 0.00 0.00 86 1014.3
20260507160316 65 11 12.0 21.0 0.00 0.00 0.00 86 1014.3
20260507155816 65 28 13.0 21.0 0.00 0.00 0.00 86 1014.0
20260507154816 65 5 11.0 18.0 0.00 0.00 0.00 86 1014.0
20260507154303 65 36 10.0 18.0 0.00 0.00 0.00 86 1014.0
20260507153747 65 4 11.0 18.0 0.00 0.00 0.00 86 1014.0
20260507153248 65 90 13.0 21.0 0.00 0.00 0.00 86 1014.0
20260507152749 66 19 13.0 21.0 0.00 0.00 0.00 86 1013.6
20260507152516 66 30 13.0 21.0 0.00 0.00 0.00 86 1013.6
20260507151747 66 11 12.0 21.0 0.00 0.00 0.00 86 1013.6
20260507151248 65 22 11.0 20.0 0.00 0.00 0.00 86 1013.6
20260507150744 65 17 11.0 19.0 0.00 0.00 0.00 85 1013.6
20260507150244 65 15 11.0 19.0 0.00 0.00 0.00 85 1013.6
20260507145743 65 8 11.0 17.0 0.00 0.00 0.00 85 1013.6
20260507145244 65 11 10.0 19.0 0.00 0.00 0.00 85 1013.6
20260507144243 66 8 14.0 20.0 0.00 0.00 0.00 85 1013.4
20260507143745 66 337 15.0 22.0 0.00 0.00 0.00 85 1013.4
20260507143239 66 18 14.0 24.0 0.00 0.00 0.00 85 1013.4
20260507142222 66 12 13.0 23.0 0.00 0.00 0.00 85 1013.5
20260507141713 66 19 12.0 21.0 0.00 0.00 0.00 85 1013.5
20260507141206 66 11 12.0 21.0 0.00 0.00 0.00 85 1013.9
20260507140657 66 339 12.0 20.0 0.00 0.00 0.00 85 1013.9
20260507140148 66 7 13.0 20.0 0.00 0.00 0.00 85 1013.9
20260507135643 66 16 12.0 20.0 0.00 0.00 0.00 85 1013.7
20260507135358 66 11 11.0 20.0 0.00 0.00 0.00 85 1013.7
20260507134622 66 19 12.0 20.0 0.00 0.00 0.00 85 1013.7
20260507134330 66 20 12.0 19.0 0.00 0.00 0.00 85 1013.1
20260507133606 66 25 12.0 19.0 0.00 0.00 0.00 85 1013.1
20260507133107 66 14 11.0 18.0 0.00 0.00 0.00 85 1013.1
20260507132606 66 16 11.0 18.0 0.00 0.00 0.00 85 1012.9
20260507132106 66 12 11.0 18.0 0.00 0.00 0.00 85 1012.9
20260507131608 66 15 11.0 21.0 0.00 0.00 0.00 85 1012.9
20260507131107 66 26 11.0 21.0 0.00 0.00 0.00 85 1012.4
20260507130107 66 13 13.0 21.0 0.00 0.00 0.00 85 1012.4
20260507125831 66 7 12.0 23.0 0.00 0.00 0.00 85 1012.4
20260507125054 66 355 12.0 23.0 0.00 0.00 0.00 85 1012.4
20260507124553 66 7 13.0 20.0 0.00 0.00 0.00 85 1012.4
20260507124053 66 16 13.0 20.0 0.00 0.00 0.00 85 1012.4
20260507123553 66 0 12.0 20.0 0.00 0.00 0.00 85 1012.4
20260507123351 66 9 11.0 18.0 0.00 0.00 0.00 85 1012.4
20260507122553 66 31 11.0 18.0 0.00 0.00 0.00 84 1012.1
20260507122054 66 17 10.0 16.0 0.00 0.00 0.00 85 1012.1
20260507121554 66 23 10.0 15.0 0.00 0.00 0.00 85 1012.1
20260507121042 66 24 10.0 15.0 0.00 0.00 0.00 85 1012.5
20260507120539 66 18 8.0 15.0 0.00 0.00 0.00 85 1012.5
20260507120246 66 359 8.0 13.0 0.00 0.00 0.00 85 1012.5
20260507115516 66 13 9.0 14.0 0.00 0.00 0.00 84 1012.6
20260507115009 66 18 9.0 14.0 0.00 0.00 0.00 84 1012.6
20260507114500 66 28 9.0 14.0 0.00 0.00 0.00 84 1012.6
20260507114212 66 359 7.0 14.0 0.00 0.00 0.00 84 1012.6
20260507113442 66 9 7.0 14.0 0.00 0.00 0.00 84 1012.6
20260507112932 66 3 7.0 14.0 0.00 0.00 0.00 84 1011.9
20260507112426 66 353 8.0 14.0 0.00 0.00 0.00 84 1011.9
20260507111916 66 23 8.0 14.0 0.00 0.00 0.00 84 1011.9
20260507111404 66 10 8.0 13.0 0.00 0.00 0.00 84 1011.8
20260507110859 66 11 8.0 14.0 0.00 0.00 0.00 84 1011.8
20260507110353 66 7 9.0 14.0 0.00 0.00 0.00 84 1011.8
20260507105842 66 13 9.0 14.0 0.00 0.00 0.00 84 1011.5
20260507105606 66 7 8.0 13.0 0.00 0.00 0.00 84 1011.5
20260507104826 66 3 7.0 13.0 0.00 0.00 0.00 84 1011.5
20260507104319 66 5 8.0 17.0 0.00 0.00 0.00 84 1011.9
20260507103810 66 24 9.0 17.0 0.00 0.00 0.00 84 1011.9
20260507103300 66 27 9.0 17.0 0.00 0.00 0.00 84 1011.9
20260507102746 66 12 9.0 17.0 0.00 0.00 0.00 84 1011.7
20260507102236 66 9 10.0 15.0 0.00 0.00 0.00 84 1011.7
20260507101948 66 340 10.0 15.0 0.00 0.00 0.00 84 1011.7
20260507101224 66 1 9.0 16.0 0.00 0.00 0.00 84 1011.4
20260507100946 66 3 9.0 16.0 0.00 0.00 0.00 84 1011.4
20260507100204 66 347 9.0 14.0 0.00 0.00 0.00 84 1011.4
20260507095653 66 358 9.0 16.0 0.00 0.00 0.00 84 1011.4
20260507095139 66 90 9.0 16.0 0.00 0.00 0.00 84 1011.4
20260507094629 66 359 8.0 13.0 0.00 0.00 0.00 84 1011.4
20260507094346 66 90 8.0 13.0 0.00 0.00 0.00 84 1011.2
20260507093611 66 357 7.0 11.0 0.00 0.00 0.00 84 1011.2
20260507093331 67 24 7.0 11.0 0.00 0.00 0.00 84 1011.2
20260507092555 66 18 8.0 14.0 0.00 0.00 0.00 84 1010.9
20260507092045 66 9 9.0 14.0 0.00 0.00 0.00 84 1010.9
20260507091547 67 28 8.0 13.0 0.00 0.00 0.00 84 1010.9
20260507091029 66 7 7.0 12.0 0.00 0.00 0.00 84 1011.2
20260507090531 66 22 7.0 12.0 0.00 0.00 0.00 84 1011.2
20260507090250 66 3 8.0 12.0 0.00 0.00 0.00 84 1011.2
20260507085531 66 25 9.0 14.0 0.00 0.00 0.00 84 1011.1
20260507085028 67 26 8.0 16.0 0.00 0.00 0.00 84 1011.1
20260507084532 67 347 8.0 16.0 0.00 0.00 0.00 84 1011.1
20260507084028 67 20 8.0 16.0 0.00 0.00 0.00 84 1010.9
20260507083530 67 13 10.0 16.0 0.00 0.00 0.00 84 1010.9
20260507083027 67 358 10.0 16.0 0.00 0.00 0.00 84 1010.9
20260507082515 67 353 9.0 16.0 0.00 0.00 0.00 84 1011.1
20260507081959 67 353 10.0 16.0 0.00 0.00 0.00 84 1011.1
20260507081457 67 5 10.0 16.0 0.00 0.00 0.00 84 1011.1
20260507080957 67 357 9.0 16.0 0.00 0.00 0.00 84 1011.2
20260507080457 67 15 9.0 16.0 0.00 0.00 0.00 84 1011.2
20260507075456 67 22 9.0 16.0 0.00 0.00 0.00 83 1011.2